Lid_Strength_Index
2 2 1 1 1 0 0 0 0 -0 -0 0 0 0 1 -0 -0 -1 -1 -2 -1 -0 -1 0 0 0 -0 0 1 2 3 3 2 3 3 4 4 4 4 3 3 4 4
3 3 2 1 1 1 1 0 0 0 -0 -0 -0 -0 -0 -0 -1 -1 -1 -1 -1 -0 0 0 1 -0 1 1 2 3 3 2 3 4 4 5 5 4 4 4 4 4 4
4 3 3 2 1 1 1 1 0 0 -0 -0 -0 -0 -0 -1 0 1 0 0 -0 0 1 1 1 1 2 2 3 3 3 3 3 3 5 6 6 5 4 4 4 4 4
3 3 3 2 2 1 0 0 0 0 -0 -0 -0 0 1 2 0 0 0 1 2 1 2 2 2 2 2 3 3 3 2 3 4 4 4 4 4 7 7 5 4 4 4
3 3 3 2 1 1 1 0 0 0 -0 -0 -0 1 1 1 0 0 1 2 2 2 2 3 3 4 3 4 3 3 3 3 5 5 4 4 4 5 6 8 6 5 5
3 3 2 2 2 1 1 1 1 1 0 0 0 1 1 1 1 1 2 3 3 3 4 4 4 3 4 3 3 4 3 4 4 4 4 5 6 6 6 7 7 7 5
3 3 3 3 2 2 1 1 1 2 1 1 1 1 1 1 1 1 2 4 6 6 6 5 4 4 4 3 3 3 4 4 4 4 4 4 5 5 6 6 7 7 6
3 3 3 2 2 2 2 1 1 2 1 1 1 1 0 1 1 1 4 7 7 6 5 4 4 4 5 4 4 4 4 4 3 4 4 5 5 5 5 6 7 8 7
3 3 2 2 2 2 2 1 1 1 1 1 1 1 1 0 0 1 5 6 5 5 5 4 5 5 5 4 4 5 4 4 3 3 4 5 5 5 5 5 5 6 8
3 3 2 2 2 1 1 1 1 1 1 1 1 1 0 0 0 1 4 4 4 3 4 5 5 6 6 5 5 6 4 4 3 4 5 5 5 5 5 5 5 5 5
4 3 3 2 2 1 1 1 1 1 1 1 1 1 0 0 0 1 2 3 3 4 6 5 6 7 5 6 6 5 5 5 5 5 5 5 5 5 5 5 5 4 4
3 3 3 3 2 2 2 1 1 1 1 1 1 1 1 1 1 1 2 3 4 4 5 4 6 7 6 6 6 6 7 6 6 5 5 6 6 5 5 5 4 4 3
3 3 3 3 3 2 2 2 1 1 1 1 1 1 1 1 2 3 3 4 4 4 4 4 6 7 6 6 6 7 7 6 6 6 6 6 6 6 5 4 4 3 4
4 3 3 3 3 2 2 2 2 1 1 2 2 2 2 3 4 4 4 3 3 4 4 7 7 7 6 7 7 6 7 6 6 6 6 6 6 5 4 3 3 3 4
4 4 4 3 3 3 2 2 2 3 3 3 3 3 3 3 3 3 3 4 5 6 7 8 7 7 7 7 6 6 7 7 7 6 6 5 4 4 4 3 3 3 3
4 4 4 3 3 3 2 3 3 3 3 3 3 3 4 4 5 6 7 8 8 9 8 8 7 7 7 9 9 8 7 6 6 7 5 4 4 4 5 5 5 4 3
4 4 4 4 3 2 2 2 2 2 2 3 3 3 4 5 6 7 8 9 9 8 8 7 7 7 6 8 9 9 8 7 6 6 5 4 4 4 3 5 6 6 5
5 5 5 4 3 3 3 3 3 3 3 3 4 4 5 6 6 7 8 8 7 7 7 7 6 6 6 9 9 9 6 6 6 5 5 4 3 3 3 3 2 2 2
5 5 4 4 4 4 4 4 4 4 5 5 5 5 6 6 7 7 7 7 6 6 6 7 6 7 8 9 8 9 7 7 6 5 4 4 3 4 4 3 2 2 2
5 5 5 5 5 5 4 5 5 5 6 6 6 5 5 6 6 6 6 6 5 7 7 8 8 8 6 8 9 9 7 7 6 5 4 6 5 5 5 3 2 3 2
6 6 6 5 5 5 5 5 6 6 6 6 5 6 6 6 6 7 7 7 7 7 7 7 7 7 7 7 9 9 8 7 6 5 5 3 5 5 4 4 2 2 1
7 6 6 6 5 5 5 6 7 6 6 7 9 9 9 9 9 8 8 8 8 8 8 8 8 7 6 8 8 9 9 8 7 6 4 3 4 4 4 4 4 4 4
6 6 6 6 6 6 6 7 8 8 8 9 9 9 9 9 9 9 9 9 9 9 9 10 9 9 9 8 10 10 9 8 7 5 5 5 5 4 4 4 4 4 3
6 6 7 8 9 8 8 8 8 9 9 9 10 10 10 10 10 10 11 11 11 11 11 11 11 10 10 10 11 10 9 9 8 7 5 5 6 5 4 4 3 2 2
7 7 8 9 9 9 9 9 9 9 10 10 11 12 12 12 12 12 12 12 12 13 13 12 12 12 12 13 12 12 10 9 9 9 7 6 5 5 4 3 2 3 2
8 8 9 10 10 10 11 11 10 10 11 12 13 13 12 12 12 13 12 14 14 14 14 14 13 12 13 14 13 12 11 10 9 8 6 6 5 5 4 3 3 3 3